This is the latest recevied weather packets stored in our database for station/object KB1FFS. If no packets are shown the sender has not sent any weather packets the latest 10 day(s).
| Time | Temp. | Humidity | Pressure | Rain* | Wind** | Luminosity | Snow |
|---|---|---|---|---|---|---|---|
| 1787581848 | 32.78° C | 40% | 1015.3 hPa | 0 mm | - | 186 W/m² | - |
| 1787581543 | 32.78° C | 40% | 1015.5 hPa | 0 mm | - | 186 W/m² | - |
| 1787581243 | 32.78° C | 40% | 1015.4 hPa | 0 mm | - | 114 W/m² | - |
| 1787580943 | 32.22° C | 41% | 1015.4 hPa | 0 mm | - | 76 W/m² | - |
| 1787580639 | 32.22° C | 41% | 1015.5 hPa | 0 mm | - | 62 W/m² | - |
| 1787580334 | 31.67° C | 42% | 1015.4 hPa | 0 mm | - | 50 W/m² | - |
| 1787580030 | 31.67° C | 43% | 1015.4 hPa | 0 mm | - | 54 W/m² | - |
| 1787579729 | 31.67° C | 44% | 1015.6 hPa | 0 mm | - | 59 W/m² | - |
| 1787579424 | 31.11° C | 44% | 1015.6 hPa | 0 mm | - | 62 W/m² | - |
| 1787579119 | 31.11° C | 45% | 1015.6 hPa | 0 mm | - | 60 W/m² | - |
| 1787578815 | 30.56° C | 46% | 1015.4 hPa | 0 mm | - | 59 W/m² | - |
| 1787578510 | 30.56° C | 46% | 1015.5 hPa | 0 mm | - | 57 W/m² | - |
| 1787578210 | 30° C | 47% | 1015.6 hPa | 0 mm | - | 44 W/m² | - |
| 1787577906 | 30° C | 47% | 1015.4 hPa | 0 mm | - | 43 W/m² | - |
| 1787577601 | 30° C | 47% | 1015.2 hPa | 0 mm | - | 45 W/m² | - |
| 1787577297 | 30° C | 49% | 1015.3 hPa | 0 mm | - | 51 W/m² | - |
| 1787576993 | 30° C | 48% | 1015.3 hPa | 0 mm | - | 54 W/m² | - |
| 1787576693 | 30° C | 47% | 1015.5 hPa | 0 mm | - | 46 W/m² | - |
| 1787576389 | 29.44° C | 48% | 1015.1 hPa | 0 mm | - | 42 W/m² | - |
| 1787576084 | 29.44° C | 49% | 1015 hPa | 0 mm | - | 44 W/m² | - |
| 1787575779 | 29.44° C | 50% | 1015.3 hPa | 0 mm | - | 38 W/m² | - |
| 1787575475 | 29.44° C | 49% | 1015.1 hPa | 0 mm | - | 33 W/m² | - |
| 1787575171 | 29.44° C | 48% | 1015 hPa | 0 mm | - | 26 W/m² | - |
| 1787574870 | 29.44° C | 48% | 1014.8 hPa | 0 mm | - | 19 W/m² | - |
| 1787574565 | 29.44° C | 48% | 1014.7 hPa | 0 mm | - | 13 W/m² | - |
* Rain latest hour (hover to see other rain measurements)
** Current wind speed in m/s (hover to see current wind gust speed)